Weather in Pushnoye

Russia / Republic of Khakassia     54°13′33″N   90°28′54″E
temp.,
°C
wind,
m/s
gust,
m/s
humid.,
%
clouds,
%
prec.,
mm/h
press.,
hPa
HPBL,
m
27 january, wed
wed2701:00−29ssw128727 0.0 104120
04:00−28s228493 0.0 103922
07:00−25sse239097 0.0 103661
10:00−22sse3499100 0.4 1033127
13:00−18sse3692100 1.1 1028227
16:00−13s3890100 0.1 1024273
19:00−8wsw41478100 0.1 1024711
22:00−7w71874100 0.0 1023767
28 january, thu
thu2801:00−7wsw102071100 0.0 1022684
04:00−7w92071100 0.0 1023683
07:00−7w71774100 0.0 1025749
10:00−8w61577100 0.0 1027744
13:00−6w5127799 0.0 1027921
16:00−7w3128099 0.0 1027924
19:00−9w31280100 0.0 1027658
22:00−9sw2782100 0.0 1025238
29 january, fri
fri2901:00−9ssw2480100 0.0 102495
04:00−9sw31580100 0.0 1022808
07:00−8sw31579100 0.0 1020856
10:00−7wsw61877100 0.0 1017955
13:00−3w92073100 0.0 10151307
16:00−6wnw9187499 0.0 10171170
19:00−8w8187594 0.0 1021706
22:00−10w6167684 0.0 1022539
30 january, sat
sat3001:00−11sw4118392 0.0 1023306
04:00−13sw478364 0.0 1023129
07:00−10w5167851 0.0 1023587
10:00−10w6167890 0.0 1025758
13:00−8wnw8157694 0.0 10261319
16:00−11nnw4109097 0.1 1028659
19:00−22nne2210097 0.1 103329
22:00−26nnw11100100 0.1 103719
31 january, sun
sun3101:00−28sse0010097 0.1 103919
04:00−27se1110057 0.0 104019
07:00−26sse129956 0.0 104020
10:00−24se129765 0.0 103922
13:00−19ese229464 0.0 1036123
16:00−20ese129747 0.0 103446
19:00−22se229147 0.0 103420
22:00−20se2288100 0.0 103225